| time (UTC) | temp F | wind direction | speed MPH | gust MPH | rain 1hr in | rain 24hr in | rain mn in | humidity % | barometer mb |
| 20260902160626 | 62 | 135 | 1.0 | 1.0 | 0.00 | 0.08 | 0.08 | 77 | 1010.6 |
| 20260902160121 | 61 | 143 | 1.0 | 1.0 | 0.00 | 0.08 | 0.08 | 80 | 1010.5 |
| 20260902155619 | 61 | 198 | 2.0 | 2.0 | 0.00 | 0.08 | 0.08 | 79 | 1010.5 |
| 20260902155118 | 61 | 225 | 2.0 | 2.0 | 0.00 | 0.08 | 0.08 | 80 | 1010.5 |
| 20260902154613 | 60 | 124 | 0.0 | 0.0 | 0.00 | 0.08 | 0.08 | 81 | 1010.6 |
| 20260902154108 | 61 | 64 | 0.0 | 0.0 | 0.00 | 0.08 | 0.08 | 81 | 1010.7 |
| 20260902153607 | 60 | 94 | 1.0 | 1.0 | 0.00 | 0.08 | 0.08 | 81 | 1010.8 |
| 20260902153102 | 60 | 61 | 1.0 | 1.0 | 0.00 | 0.08 | 0.08 | 83 | 1010.7 |
| 20260902152559 | 60 | 123 | 0.0 | 0.0 | 0.00 | 0.08 | 0.08 | 82 | 1010.7 |
| 20260902152054 | 59 | 50 | 0.0 | 0.0 | 0.00 | 0.08 | 0.08 | 84 | 1010.8 |
| 20260902151550 | 59 | 22 | 2.0 | 2.0 | 0.00 | 0.08 | 0.08 | 85 | 1010.8 |
| 20260902151049 | 58 | 38 | 0.0 | 0.0 | 0.00 | 0.08 | 0.08 | 87 | 1011.0 |
| 20260902150544 | 58 | 34 | 0.0 | 0.0 | 0.00 | 0.08 | 0.08 | 88 | 1011.0 |
| 20260902150040 | 58 | 15 | 1.0 | 1.0 | 0.00 | 0.08 | 0.08 | 87 | 1011.3 |
| 20260902145535 | 58 | 61 | 0.0 | 0.0 | 0.00 | 0.08 | 0.08 | 87 | 1011.2 |
| 20260902145034 | 57 | 69 | 0.0 | 0.0 | 0.00 | 0.08 | 0.08 | 90 | 1011.6 |
| 20260902144532 | 57 | 66 | 0.0 | 0.0 | 0.00 | 0.08 | 0.08 | 89 | 1011.3 |
| 20260902144031 | 56 | 64 | 0.0 | 0.0 | 0.00 | 0.08 | 0.08 | 91 | 1011.3 |
| 20260902143526 | 55 | 63 | 0.0 | 0.0 | 0.00 | 0.08 | 0.08 | 93 | 1011.5 |
| 20260902143022 | 54 | 64 | 0.0 | 0.0 | 0.00 | 0.08 | 0.08 | 93 | 1011.5 |
| 20260902142517 | 55 | 61 | 0.0 | 0.0 | 0.00 | 0.08 | 0.08 | 94 | 1011.6 |
| 20260902142013 | 54 | 69 | 0.0 | 0.0 | 0.00 | 0.08 | 0.08 | 95 | 1011.6 |
| 20260902141507 | 54 | 70 | 0.0 | 0.0 | 0.00 | 0.08 | 0.08 | 95 | 1011.2 |
| 20260902141002 | 54 | 57 | 0.0 | 0.0 | 0.00 | 0.08 | 0.08 | 95 | 1011.3 |
| 20260902140457 | 53 | 56 | 0.0 | 0.0 | 0.00 | 0.08 | 0.08 | 95 | 1011.5 |
| 20260902135956 | 53 | 56 | 0.0 | 0.0 | 0.00 | 0.08 | 0.08 | 95 | 1011.5 |
| 20260902135452 | 53 | 56 | 0.0 | 0.0 | 0.00 | 0.08 | 0.08 | 95 | 1011.6 |
| 20260902134952 | 53 | 56 | 0.0 | 0.0 | 0.00 | 0.08 | 0.08 | 95 | 1011.8 |
| 20260902134448 | 53 | 54 | 0.0 | 0.0 | 0.00 | 0.08 | 0.08 | 95 | 1011.8 |
| 20260902133948 | 53 | 337 | 2.0 | 2.0 | 0.00 | 0.08 | 0.08 | 96 | 1011.7 |
| 20260902133443 | 52 | 50 | 0.0 | 0.0 | 0.00 | 0.08 | 0.08 | 95 | 1011.9 |
| 20260902132938 | 52 | 47 | 0.0 | 0.0 | 0.00 | 0.08 | 0.08 | 95 | 1011.8 |
| 20260902132433 | 52 | 57 | 2.0 | 2.0 | 0.00 | 0.08 | 0.08 | 95 | 1011.7 |
| 20260902131927 | 52 | 60 | 0.0 | 0.0 | 0.00 | 0.08 | 0.08 | 95 | 1011.7 |
| 20260902131424 | 52 | 56 | 0.0 | 0.0 | 0.00 | 0.08 | 0.08 | 95 | 1011.5 |
| 20260902130923 | 52 | 118 | 0.0 | 0.0 | 0.00 | 0.08 | 0.08 | 96 | 1011.8 |
| 20260902130419 | 52 | 178 | 2.0 | 2.0 | 0.00 | 0.08 | 0.08 | 96 | 1011.6 |
| 20260902125914 | 52 | 165 | 3.0 | 3.0 | 0.00 | 0.08 | 0.08 | 97 | 1011.6 |
| 20260902125410 | 52 | 123 | 0.0 | 0.0 | 0.00 | 0.08 | 0.08 | 96 | 1011.8 |
| 20260902124906 | 52 | 122 | 0.0 | 0.0 | 0.00 | 0.08 | 0.08 | 96 | 1011.8 |
| 20260902124402 | 52 | 133 | 2.0 | 2.0 | 0.00 | 0.08 | 0.08 | 96 | 1011.9 |
| 20260902123856 | 52 | 75 | 1.0 | 1.0 | 0.00 | 0.08 | 0.08 | 96 | 1011.8 |
| 20260902123353 | 52 | 69 | 2.0 | 2.0 | 0.00 | 0.08 | 0.08 | 95 | 1011.9 |
| 20260902122851 | 52 | 67 | 0.0 | 0.0 | 0.00 | 0.08 | 0.08 | 95 | 1012.0 |
| 20260902122347 | 53 | 31 | 0.0 | 0.0 | 0.00 | 0.08 | 0.08 | 95 | 1011.8 |
| 20260902121842 | 53 | 58 | 0.0 | 0.0 | 0.00 | 0.08 | 0.08 | 94 | 1011.8 |
| 20260902121337 | 53 | 59 | 0.0 | 0.0 | 0.00 | 0.08 | 0.08 | 94 | 1011.9 |
| 20260902120832 | 53 | 54 | 0.0 | 0.0 | 0.00 | 0.08 | 0.08 | 94 | 1012.1 |
| 20260902120328 | 53 | 53 | 0.0 | 0.0 | 0.00 | 0.08 | 0.08 | 93 | 1012.2 |
| 20260902115823 | 54 | 26 | 0.0 | 0.0 | 0.00 | 0.08 | 0.08 | 93 | 1012.1 |
| 20260902115319 | 54 | 56 | 0.0 | 0.0 | 0.00 | 0.08 | 0.08 | 92 | 1012.0 |
| 20260902114815 | 54 | 297 | 4.0 | 5.0 | 0.00 | 0.08 | 0.08 | 91 | 1012.5 |
| 20260902114311 | 54 | 295 | 3.0 | 3.0 | 0.00 | 0.08 | 0.08 | 90 | 1012.6 |
| 20260902113811 | 55 | 34 | 1.0 | 1.0 | 0.00 | 0.08 | 0.08 | 87 | 1012.4 |
| 20260902113306 | 55 | 108 | 2.0 | 2.0 | 0.00 | 0.08 | 0.08 | 86 | 1012.4 |
| 20260902112806 | 55 | 117 | 2.0 | 2.0 | 0.00 | 0.08 | 0.08 | 88 | 1012.2 |
| 20260902112305 | 54 | 286 | 3.0 | 3.0 | 0.00 | 0.08 | 0.08 | 93 | 1012.2 |
| 20260902111758 | 54 | 49 | 0.0 | 0.0 | 0.00 | 0.08 | 0.08 | 94 | 1012.1 |
| 20260902111254 | 53 | 30 | 2.0 | 2.0 | 0.00 | 0.08 | 0.08 | 94 | 1012.2 |
| 20260902110750 | 53 | 55 | 0.0 | 1.0 | 0.00 | 0.08 | 0.08 | 94 | 1012.2 |
| 20260902110245 | 53 | 93 | 2.0 | 2.0 | 0.00 | 0.08 | 0.08 | 94 | 1012.1 |
| 20260902105740 | 53 | 86 | 3.0 | 3.0 | 0.00 | 0.08 | 0.08 | 93 | 1012.2 |
| 20260902105235 | 54 | 89 | 3.0 | 3.0 | 0.00 | 0.08 | 0.08 | 93 | 1012.2 |
| 20260902104730 | 55 | 66 | 0.0 | 0.0 | 0.00 | 0.08 | 0.08 | 92 | 1012.0 |
| 20260902104226 | 55 | 81 | 3.0 | 3.0 | 0.00 | 0.08 | 0.08 | 92 | 1012.4 |
| 20260902103725 | 56 | 101 | 2.0 | 2.0 | 0.00 | 0.08 | 0.08 | 92 | 1012.6 |
| 20260902103225 | 56 | 111 | 3.0 | 3.0 | 0.00 | 0.08 | 0.08 | 92 | 1012.5 |
| 20260902102721 | 56 | 132 | 3.0 | 3.0 | 0.00 | 0.08 | 0.08 | 90 | 1012.5 |
| 20260902102219 | 56 | 51 | 0.0 | 0.0 | 0.00 | 0.08 | 0.08 | 90 | 1012.2 |
| 20260902101714 | 56 | 131 | 2.0 | 2.0 | 0.00 | 0.08 | 0.08 | 90 | 1012.2 |
| 20260902101209 | 57 | 117 | 0.0 | 1.0 | 0.00 | 0.08 | 0.08 | 90 | 1012.4 |
| 20260902100707 | 57 | 131 | 1.0 | 2.0 | 0.00 | 0.08 | 0.08 | 90 | 1012.2 |
| 20260902100202 | 57 | 205 | 2.0 | 2.0 | 0.00 | 0.08 | 0.08 | 90 | 1012.5 |
| 20260902095702 | 56 | 213 | 3.0 | 3.0 | 0.00 | 0.08 | 0.08 | 91 | 1012.7 |
| 20260902095156 | 56 | 129 | 1.0 | 2.0 | 0.00 | 0.08 | 0.08 | 91 | 1012.6 |
| 20260902094651 | 57 | 151 | 1.0 | 1.0 | 0.00 | 0.08 | 0.08 | 91 | 1012.5 |
| 20260902094148 | 57 | 203 | 2.0 | 2.0 | 0.00 | 0.08 | 0.08 | 91 | 1012.5 |
| 20260902093647 | 57 | 241 | 4.0 | 5.0 | 0.00 | 0.08 | 0.08 | 91 | 1012.4 |
| 20260902093142 | 57 | 269 | 3.0 | 3.0 | 0.00 | 0.08 | 0.08 | 91 | 1012.5 |
| 20260902092637 | 57 | 233 | 4.0 | 5.0 | 0.00 | 0.08 | 0.08 | 91 | 1012.6 |
| 20260902092131 | 57 | 230 | 5.0 | 5.0 | 0.00 | 0.08 | 0.08 | 91 | 1012.5 |
| 20260902091626 | 58 | 327 | 3.0 | 3.0 | 0.00 | 0.08 | 0.08 | 90 | 1012.4 |
| 20260902091122 | 58 | 80 | 1.0 | 1.0 | 0.00 | 0.08 | 0.08 | 89 | 1012.2 |
| 20260902090618 | 58 | 90 | 2.0 | 2.0 | 0.00 | 0.08 | 0.08 | 88 | 1012.1 |
| 20260902090117 | 58 | 75 | 3.0 | 3.0 | 0.00 | 0.08 | 0.08 | 88 | 1012.5 |
| 20260902085612 | 58 | 72 | 1.0 | 2.0 | 0.00 | 0.08 | 0.08 | 87 | 1012.5 |
| 20260902085107 | 59 | 111 | 5.0 | 6.0 | 0.00 | 0.08 | 0.08 | 86 | 1012.8 |
| 20260902084603 | 58 | 109 | 3.0 | 3.0 | 0.00 | 0.08 | 0.08 | 87 | 1013.1 |
| 20260902084059 | 58 | 119 | 5.0 | 6.0 | 0.00 | 0.08 | 0.08 | 88 | 1013.0 |
| 20260902083553 | 58 | 114 | 4.0 | 5.0 | 0.00 | 0.08 | 0.08 | 89 | 1013.6 |
| 20260902083048 | 58 | 96 | 7.0 | 8.0 | 0.00 | 0.08 | 0.08 | 89 | 1013.7 |
| 20260902082544 | 58 | 99 | 8.0 | 9.0 | 0.07 | 0.08 | 0.08 | 89 | 1013.9 |
| 20260902082040 | 58 | 100 | 9.0 | 9.0 | 0.07 | 0.08 | 0.08 | 89 | 1014.2 |
| 20260902081536 | 57 | 103 | 10.0 | 10.0 | 0.05 | 0.07 | 0.07 | 90 | 1014.5 |
| 20260902081036 | 58 | 93 | 6.0 | 7.0 | 0.12 | 0.07 | 0.07 | 90 | 1014.5 |
| 20260902080531 | 58 | 75 | 2.0 | 3.0 | 0.07 | 0.06 | 0.06 | 89 | 1014.5 |
| 20260902080028 | 58 | 86 | 0.0 | 0.0 | 0.05 | 0.05 | 0.05 | 88 | 1014.7 |
| 20260902075527 | 58 | 100 | 0.0 | 1.0 | 0.12 | 0.05 | 0.05 | 88 | 1014.7 |
| 20260902075023 | 59 | 121 | 2.0 | 3.0 | 0.12 | 0.04 | 0.04 | 87 | 1014.6 |
| 20260902074519 | 59 | 175 | 3.0 | 3.0 | 0.12 | 0.03 | 0.03 | 85 | 1015.3 |
| 20260902074013 | 59 | 227 | 4.0 | 6.0 | 0.07 | 0.02 | 0.02 | 83 | 1014.7 |
| 20260902073509 | 60 | 236 | 9.0 | 10.0 | 0.07 | 0.01 | 0.01 | 80 | 1014.9 |
| 20260902073006 | 59 | 242 | 8.0 | 9.0 | 0.07 | 0.01 | 0.01 | 81 | 1014.7 |
| 20260902072501 | 59 | 232 | 9.0 | 10.0 | 0.00 | 0.00 | 0.00 | 81 | 1014.6 |
| 20260902071957 | 60 | 236 | 11.0 | 13.0 | 0.00 | 0.00 | 0.00 | 79 | 1014.5 |
| 20260902071456 | 60 | 270 | 10.0 | 14.0 | 0.00 | 0.00 | 0.00 | 78 | 1014.1 |
| 20260902070953 | 61 | 267 | 15.0 | 17.0 | 0.00 | 0.00 | 0.00 | 73 | 1013.6 |
| 20260902070449 | 62 | 241 | 14.0 | 18.0 | 0.00 | 0.00 | 0.00 | 73 | 1013.9 |
| 20260902065947 | 63 | 244 | 11.0 | 11.0 | 0.00 | 0.00 | 0.00 | 68 | 1014.2 |
| 20260902065442 | 65 | 248 | 12.0 | 14.0 | 0.00 | 0.00 | 0.00 | 61 | 1014.0 |
| 20260902064937 | 66 | 240 | 17.0 | 22.0 | 0.00 | 0.00 | 0.00 | 56 | 1014.4 |
| 20260902064433 | 67 | 226 | 10.0 | 11.0 | 0.00 | 0.00 | 0.00 | 53 | 1014.2 |
| 20260902063928 | 67 | 235 | 19.0 | 21.0 | 0.00 | 0.00 | 0.00 | 51 | 1014.0 |
| 20260902063428 | 66 | 237 | 16.0 | 20.0 | 0.00 | 0.00 | 0.00 | 53 | 1014.0 |
| 20260902062923 | 66 | 279 | 10.0 | 13.0 | 0.00 | 0.00 | 0.00 | 56 | 1013.8 |
| 20260902062422 | 65 | 235 | 10.0 | 11.0 | 0.00 | 0.00 | 0.00 | 59 | 1013.6 |
| 20260902061917 | 66 | 254 | 10.0 | 13.0 | 0.00 | 0.00 | 0.00 | 58 | 1013.4 |
| 20260902061412 | 66 | 269 | 9.0 | 10.0 | 0.00 | 0.00 | 0.00 | 59 | 1013.2 |
| 20260902060909 | 65 | 249 | 7.0 | 8.0 | 0.00 | 0.00 | 0.00 | 60 | 1013.1 |
| 20260902060404 | 65 | 245 | 8.0 | 10.0 | 0.00 | 0.00 | 0.00 | 61 | 1013.2 |
| 20260902055900 | 65 | 246 | 4.0 | 5.0 | 0.00 | 0.00 | 0.00 | 61 | 1013.1 |
| 20260902055356 | 64 | 253 | 5.0 | 6.0 | 0.00 | 0.00 | 0.00 | 62 | 1013.0 |
| 20260902054851 | 62 | 68 | 0.0 | 0.0 | 0.00 | 0.00 | 0.00 | 71 | 1012.8 |
| 20260902054347 | 63 | 68 | 0.0 | 0.0 | 0.00 | 0.00 | 0.00 | 70 | 1012.9 |
| 20260902053842 | 65 | 84 | 2.0 | 2.0 | 0.00 | 0.00 | 0.00 | 68 | 1012.9 |
| 20260902053337 | 65 | 82 | 1.0 | 1.0 | 0.00 | 0.00 | 0.00 | 61 | 1012.8 |
| 20260902052836 | 65 | 359 | 0.0 | 0.0 | 0.00 | 0.00 | 0.00 | 60 | 1012.8 |
| 20260902052331 | 65 | 9 | 0.0 | 0.0 | 0.00 | 0.00 | 0.00 | 60 | 1012.8 |
| 20260902051831 | 66 | 270 | 2.0 | 2.0 | 0.00 | 0.00 | 0.00 | 59 | 1012.9 |
| 20260902051325 | 66 | 304 | 5.0 | 5.0 | 0.00 | 0.00 | 0.00 | 60 | 1012.4 |
| 20260902050820 | 67 | 310 | 4.0 | 5.0 | 0.00 | 0.00 | 0.00 | 56 | 1012.6 |
| 20260902050319 | 68 | 269 | 4.0 | 5.0 | 0.00 | 0.00 | 0.00 | 54 | 1012.8 |
| 20260902045815 | 67 | 250 | 7.0 | 8.0 | 0.00 | 0.00 | 0.00 | 55 | 1013.1 |
| 20260902045310 | 67 | 250 | 6.0 | 8.0 | 0.00 | 0.00 | 0.00 | 56 | 1013.0 |
| 20260902044807 | 67 | 265 | 7.0 | 8.0 | 0.00 | 0.00 | 0.00 | 56 | 1013.1 |
| 20260902044302 | 67 | 275 | 5.0 | 6.0 | 0.00 | 0.00 | 0.00 | 57 | 1012.8 |
| 20260902043757 | 66 | 268 | 10.0 | 13.0 | 0.00 | 0.00 | 0.00 | 57 | 1012.9 |
| 20260902043253 | 66 | 246 | 7.0 | 8.0 | 0.00 | 0.00 | 0.00 | 59 | 1012.6 |
| 20260902042752 | 66 | 265 | 9.0 | 9.0 | 0.00 | 0.00 | 0.00 | 60 | 1012.8 |
| 20260902042247 | 66 | 258 | 9.0 | 10.0 | 0.00 | 0.00 | 0.00 | 62 | 1012.8 |
| 20260902041742 | 66 | 280 | 10.0 | 11.0 | 0.00 | 0.00 | 0.00 | 60 | 1012.7 |
| 20260902041241 | 70 | 255 | 12.0 | 14.0 | 0.00 | 0.00 | 0.00 | 55 | 1012.6 |
| 20260902040740 | 71 | 273 | 15.0 | 18.0 | 0.00 | 0.00 | 0.00 | 47 | 1012.2 |
| 20260902040236 | 71 | 306 | 17.0 | 21.0 | 0.00 | 0.00 | 0.00 | 45 | 1012.1 |
| 20260902035734 | 72 | 270 | 14.0 | 18.0 | 0.00 | 0.00 | 0.00 | 44 | 1011.9 |
| 20260902035230 | 72 | 267 | 12.0 | 14.0 | 0.00 | 0.00 | 0.00 | 41 | 1011.9 |
| 20260902034729 | 73 | 266 | 14.0 | 18.0 | 0.00 | 0.00 | 0.00 | 38 | 1011.6 |
| 20260902034224 | 69 | 269 | 8.0 | 10.0 | 0.00 | 0.00 | 0.00 | 42 | 1011.5 |
| 20260902033723 | 69 | 122 | 2.0 | 2.0 | 0.00 | 0.00 | 0.00 | 43 | 1011.1 |
| 20260902033218 | 70 | 122 | 0.0 | 1.0 | 0.00 | 0.00 | 0.00 | 41 | 1010.9 |
| 20260902032716 | 71 | 127 | 3.0 | 3.0 | 0.00 | 0.00 | 0.00 | 39 | 1010.6 |
| 20260902032211 | 71 | 148 | 2.0 | 2.0 | 0.00 | 0.00 | 0.00 | 39 | 1010.6 |
| 20260902031706 | 67 | 107 | 6.0 | 7.0 | 0.00 | 0.00 | 0.00 | 44 | 1010.7 |
| 20260902031201 | 70 | 228 | 3.0 | 3.0 | 0.00 | 0.00 | 0.00 | 40 | 1010.2 |
| 20260902030657 | 69 | 234 | 3.0 | 3.0 | 0.00 | 0.00 | 0.00 | 43 | 1010.3 |
| 20260902030156 | 70 | 177 | 3.0 | 3.0 | 0.00 | 0.00 | 0.00 | 40 | 1010.5 |
| 20260902025650 | 71 | 133 | 3.0 | 3.0 | 0.00 | 0.00 | 0.00 | 39 | 1010.2 |
| 20260902025145 | 71 | 124 | 3.0 | 3.0 | 0.00 | 0.00 | 0.00 | 40 | 1010.3 |
| 20260902024641 | 71 | 117 | 4.0 | 5.0 | 0.00 | 0.00 | 0.00 | 39 | 1010.2 |
| 20260902024136 | 71 | 119 | 3.0 | 3.0 | 0.00 | 0.00 | 0.00 | 39 | 1010.0 |
| 20260902023631 | 72 | 112 | 3.0 | 3.0 | 0.00 | 0.00 | 0.00 | 37 | 1009.9 |
| 20260902023126 | 72 | 120 | 3.0 | 3.0 | 0.00 | 0.00 | 0.00 | 37 | 1010.1 |
| 20260902022625 | 72 | 117 | 4.0 | 5.0 | 0.00 | 0.00 | 0.00 | 38 | 1010.1 |
| 20260902022122 | 72 | 119 | 2.0 | 2.0 | 0.00 | 0.00 | 0.00 | 37 | 1010.1 |
| 20260902021617 | 73 | 107 | 3.0 | 5.0 | 0.00 | 0.00 | 0.00 | 37 | 1010.1 |
| 20260902021112 | 73 | 115 | 5.0 | 6.0 | 0.00 | 0.00 | 0.00 | 36 | 1009.9 |
| 20260902020608 | 74 | 143 | 3.0 | 5.0 | 0.00 | 0.00 | 0.00 | 35 | 1010.0 |
| 20260902020103 | 74 | 180 | 4.0 | 5.0 | 0.00 | 0.00 | 0.00 | 34 | 1010.0 |
| 20260902015559 | 75 | 195 | 4.0 | 5.0 | 0.00 | 0.00 | 0.00 | 34 | 1009.9 |
| 20260902015054 | 75 | 157 | 5.0 | 7.0 | 0.00 | 0.00 | 0.00 | 33 | 1009.9 |
| 20260902014550 | 75 | 146 | 5.0 | 7.0 | 0.00 | 0.00 | 0.00 | 34 | 1010.1 |
| 20260902014045 | 75 | 137 | 4.0 | 5.0 | 0.00 | 0.00 | 0.00 | 37 | 1009.7 |
| 20260902013545 | 76 | 125 | 5.0 | 6.0 | 0.00 | 0.00 | 0.00 | 37 | 1009.7 |
| 20260902013041 | 76 | 134 | 6.0 | 7.0 | 0.00 | 0.00 | 0.00 | 36 | 1009.8 |
| 20260902012536 | 77 | 117 | 5.0 | 6.0 | 0.00 | 0.00 | 0.00 | 34 | 1009.4 |
| 20260902012031 | 77 | 107 | 5.0 | 6.0 | 0.00 | 0.00 | 0.00 | 34 | 1009.6 |
| 20260902011527 | 77 | 110 | 6.0 | 7.0 | 0.00 | 0.00 | 0.00 | 35 | 1009.7 |
| 20260902011026 | 77 | 109 | 5.0 | 6.0 | 0.00 | 0.00 | 0.00 | 35 | 1009.6 |
| 20260902010526 | 77 | 102 | 3.0 | 3.0 | 0.00 | 0.00 | 0.00 | 36 | 1009.9 |
| 20260902010022 | 78 | 81 | 2.0 | 2.0 | 0.00 | 0.00 | 0.00 | 36 | 1009.9 |
| 20260902005519 | 79 | 87 | 2.0 | 2.0 | 0.00 | 0.00 | 0.00 | 35 | 1010.1 |
| 20260902005016 | 79 | 81 | 0.0 | 0.0 | 0.00 | 0.00 | 0.00 | 34 | 1010.1 |
| 20260902004515 | 79 | 82 | 0.0 | 0.0 | 0.00 | 0.00 | 0.00 | 35 | 1010.0 |
| 20260902004011 | 79 | 84 | 0.0 | 0.0 | 0.00 | 0.00 | 0.00 | 34 | 1010.1 |
| 20260902003506 | 80 | 212 | 0.0 | 0.0 | 0.00 | 0.00 | 0.00 | 33 | 1010.1 |
| 20260902003001 | 80 | 212 | 0.0 | 0.0 | 0.00 | 0.00 | 0.00 | 33 | 1010.2 |
| 20260902002456 | 81 | 228 | 3.0 | 3.0 | 0.00 | 0.00 | 0.00 | 32 | 1010.0 |
| 20260902001956 | 81 | 193 | 2.0 | 3.0 | 0.00 | 0.00 | 0.00 | 31 | 1010.1 |
| 20260902001451 | 81 | 204 | 5.0 | 6.0 | 0.00 | 0.00 | 0.00 | 31 | 1009.8 |
| 20260902000946 | 81 | 129 | 5.0 | 6.0 | 0.00 | 0.00 | 0.00 | 30 | 1009.9 |
| 20260902000444 | 80 | 162 | 4.0 | 6.0 | 0.00 | 0.00 | 0.00 | 31 | 1010.0 |
| 20260901235936 | 80 | 115 | 9.0 | 11.0 | 0.00 | 0.00 | 0.00 | 31 | 1010.1 |
| 20260901235431 | 79 | 120 | 9.0 | 9.0 | 0.00 | 0.00 | 0.00 | 32 | 1010.0 |
| 20260901234926 | 80 | 113 | 7.0 | 8.0 | 0.00 | 0.00 | 0.00 | 31 | 1010.0 |
| 20260901234420 | 80 | 109 | 10.0 | 11.0 | 0.00 | 0.00 | 0.00 | 31 | 1010.1 |
| 20260901233915 | 80 | 92 | 9.0 | 9.0 | 0.00 | 0.00 | 0.00 | 31 | 1009.9 |
| 20260901233410 | 80 | 108 | 11.0 | 13.0 | 0.00 | 0.00 | 0.00 | 31 | 1010.1 |
| 20260901232907 | 80 | 113 | 8.0 | 9.0 | 0.00 | 0.00 | 0.00 | 31 | 1010.0 |
| 20260901232401 | 80 | 126 | 12.0 | 14.0 | 0.00 | 0.00 | 0.00 | 31 | 1010.0 |
| 20260901231856 | 81 | 127 | 14.0 | 15.0 | 0.00 | 0.00 | 0.00 | 30 | 1010.0 |
| 20260901231353 | 81 | 113 | 11.0 | 13.0 | 0.00 | 0.00 | 0.00 | 29 | 1009.9 |
| 20260901230849 | 82 | 104 | 9.0 | 10.0 | 0.00 | 0.00 | 0.00 | 30 | 1010.1 |
| 20260901230348 | 83 | 99 | 14.0 | 16.0 | 0.00 | 0.00 | 0.00 | 29 | 1009.8 |
| 20260901225844 | 84 | 109 | 13.0 | 16.0 | 0.00 | 0.00 | 0.00 | 28 | 1009.8 |
| 20260901225343 | 84 | 117 | 10.0 | 11.0 | 0.00 | 0.00 | 0.00 | 28 | 1010.1 |
| 20260901224838 | 84 | 107 | 9.0 | 11.0 | 0.00 | 0.00 | 0.00 | 29 | 1009.9 |
| 20260901224334 | 84 | 114 | 10.0 | 13.0 | 0.00 | 0.00 | 0.00 | 28 | 1009.8 |
| 20260901223831 | 84 | 111 | 11.0 | 14.0 | 0.00 | 0.00 | 0.00 | 29 | 1009.9 |
| 20260901223326 | 84 | 108 | 10.0 | 13.0 | 0.00 | 0.00 | 0.00 | 29 | 1009.9 |
| 20260901222821 | 85 | 114 | 11.0 | 14.0 | 0.00 | 0.00 | 0.00 | 29 | 1010.0 |
| 20260901222318 | 85 | 120 | 11.0 | 13.0 | 0.00 | 0.00 | 0.00 | 28 | 1010.0 |
| 20260901221814 | 85 | 109 | 14.0 | 15.0 | 0.00 | 0.00 | 0.00 | 28 | 1010.0 |
| 20260901221309 | 85 | 113 | 9.0 | 13.0 | 0.00 | 0.00 | 0.00 | 28 | 1010.1 |
| 20260901220808 | 85 | 100 | 11.0 | 13.0 | 0.00 | 0.00 | 0.00 | 28 | 1010.3 |
| 20260901220308 | 86 | 91 | 4.0 | 5.0 | 0.00 | 0.00 | 0.00 | 27 | 1010.3 |
| 20260901215806 | 86 | 86 | 6.0 | 8.0 | 0.00 | 0.00 | 0.00 | 25 | 1010.5 |
| 20260901215306 | 86 | 39 | 2.0 | 2.0 | 0.00 | 0.00 | 0.00 | 28 | 1010.5 |
| 20260901214804 | 86 | 354 | 2.0 | 2.0 | 0.00 | 0.00 | 0.00 | 29 | 1010.7 |
| 20260901214303 | 86 | 61 | 1.0 | 2.0 | 0.00 | 0.00 | 0.00 | 28 | 1010.7 |
| 20260901213758 | 86 | 59 | 2.0 | 3.0 | 0.00 | 0.00 | 0.00 | 28 | 1010.7 |
| 20260901213258 | 87 | 78 | 3.0 | 3.0 | 0.00 | 0.00 | 0.00 | 29 | 1010.8 |
| 20260901212753 | 87 | 62 | 0.0 | 0.0 | 0.00 | 0.00 | 0.00 | 26 | 1011.0 |
| 20260901212248 | 86 | 60 | 1.0 | 1.0 | 0.00 | 0.00 | 0.00 | 24 | 1010.9 |
| 20260901211743 | 85 | 45 | 3.0 | 3.0 | 0.00 | 0.00 | 0.00 | 25 | 1011.2 |
| 20260901211240 | 85 | 94 | 7.0 | 8.0 | 0.00 | 0.00 | 0.00 | 30 | 1011.1 |
| 20260901210736 | 85 | 86 | 3.0 | 3.0 | 0.00 | 0.00 | 0.00 | 34 | 1011.1 |
| 20260901210231 | 85 | 92 | 2.0 | 5.0 | 0.00 | 0.00 | 0.00 | 34 | 1011.3 |
| 20260901205727 | 85 | 45 | 4.0 | 5.0 | 0.00 | 0.00 | 0.00 | 31 | 1011.6 |
| 20260901205226 | 84 | 56 | 0.0 | 0.0 | 0.00 | 0.00 | 0.00 | 31 | 1011.5 |
| 20260901204722 | 84 | 102 | 2.0 | 6.0 | 0.00 | 0.00 | 0.00 | 32 | 1011.8 |
| 20260901204218 | 83 | 93 | 1.0 | 1.0 | 0.00 | 0.00 | 0.00 | 31 | 1011.6 |
| 20260901203712 | 83 | 109 | 4.0 | 5.0 | 0.00 | 0.00 | 0.00 | 31 | 1011.8 |
| 20260901203207 | 83 | 65 | 5.0 | 6.0 | 0.00 | 0.00 | 0.00 | 33 | 1012.0 |
| 20260901202707 | 83 | 93 | 7.0 | 9.0 | 0.00 | 0.00 | 0.00 | 32 | 1012.1 |
| 20260901202202 | 82 | 80 | 4.0 | 5.0 | 0.00 | 0.00 | 0.00 | 35 | 1012.0 |
| 20260901201658 | 82 | 110 | 11.0 | 13.0 | 0.00 | 0.00 | 0.00 | 33 | 1012.2 |
| 20260901201152 | 82 | 79 | 5.0 | 6.0 | 0.00 | 0.00 | 0.00 | 35 | 1012.1 |
| 20260901200651 | 81 | 106 | 9.0 | 10.0 | 0.00 | 0.00 | 0.00 | 35 | 1012.4 |
| 20260901200147 | 81 | 75 | 7.0 | 9.0 | 0.00 | 0.00 | 0.00 | 38 | 1012.5 |
| 20260901195643 | 81 | 105 | 2.0 | 3.0 | 0.00 | 0.00 | 0.00 | 39 | 1012.4 |
| 20260901195138 | 81 | 81 | 3.0 | 6.0 | 0.00 | 0.00 | 0.00 | 38 | 1012.6 |
| 20260901194634 | 80 | 78 | 2.0 | 3.0 | 0.00 | 0.00 | 0.00 | 37 | 1012.6 |
| 20260901194129 | 80 | 66 | 6.0 | 6.0 | 0.00 | 0.00 | 0.00 | 38 | 1012.9 |
| 20260901193624 | 80 | 104 | 7.0 | 8.0 | 0.00 | 0.00 | 0.00 | 35 | 1012.8 |
| 20260901193119 | 79 | 59 | 3.0 | 5.0 | 0.00 | 0.00 | 0.00 | 38 | 1012.9 |
| 20260901192614 | 79 | 89 | 8.0 | 10.0 | 0.00 | 0.00 | 0.00 | 39 | 1012.9 |
| 20260901192109 | 79 | 83 | 4.0 | 6.0 | 0.00 | 0.00 | 0.00 | 39 | 1013.2 |
| 20260901191605 | 78 | 125 | 3.0 | 5.0 | 0.00 | 0.00 | 0.00 | 36 | 1013.1 |
| 20260901191101 | 77 | 90 | 4.0 | 5.0 | 0.00 | 0.00 | 0.00 | 40 | 1013.4 |
| 20260901190556 | 76 | 68 | 7.0 | 9.0 | 0.00 | 0.00 | 0.00 | 40 | 1013.5 |
| 20260901190055 | 76 | 89 | 7.0 | 7.0 | 0.00 | 0.00 | 0.00 | 39 | 1013.7 |
| 20260901185554 | 76 | 70 | 3.0 | 3.0 | 0.00 | 0.00 | 0.00 | 40 | 1013.9 |
| 20260901185053 | 75 | 82 | 7.0 | 8.0 | 0.00 | 0.00 | 0.00 | 40 | 1013.9 |
| 20260901184548 | 75 | 55 | 1.0 | 2.0 | 0.00 | 0.00 | 0.00 | 43 | 1014.0 |
| 20260901184043 | 73 | 47 | 3.0 | 3.0 | 0.00 | 0.00 | 0.00 | 47 | 1014.1 |
| 20260901183538 | 73 | 60 | 1.0 | 1.0 | 0.00 | 0.00 | 0.00 | 49 | 1014.2 |
| 20260901183033 | 72 | 31 | 2.0 | 2.0 | 0.00 | 0.00 | 0.00 | 49 | 1014.4 |
| 20260901182530 | 71 | 342 | 3.0 | 3.0 | 0.00 | 0.00 | 0.00 | 51 | 1014.2 |
| 20260901182024 | 71 | 41 | 2.0 | 2.0 | 0.00 | 0.00 | 0.00 | 49 | 1014.5 |
| 20260901181523 | 71 | 72 | 1.0 | 1.0 | 0.00 | 0.00 | 0.00 | 47 | 1014.5 |
| 20260901181023 | 69 | 58 | 0.0 | 0.0 | 0.00 | 0.00 | 0.00 | 48 | 1014.8 |
| 20260901180521 | 69 | 337 | 4.0 | 5.0 | 0.00 | 0.00 | 0.00 | 50 | 1014.7 |
| 20260901180017 | 67 | 49 | 0.0 | 0.0 | 0.00 | 0.00 | 0.00 | 51 | 1014.8 |
| 20260901175510 | 67 | 31 | 1.0 | 2.0 | 0.00 | 0.00 | 0.00 | 51 | 1014.8 |
| 20260901175005 | 67 | 24 | 1.0 | 2.0 | 0.00 | 0.00 | 0.00 | 50 | 1014.9 |
| 20260901174501 | 66 | 27 | 2.0 | 2.0 | 0.00 | 0.00 | 0.00 | 52 | 1014.9 |
| 20260901173956 | 65 | 348 | 2.0 | 2.0 | 0.00 | 0.00 | 0.00 | 52 | 1015.1 |
| 20260901173451 | 66 | 247 | 0.0 | 0.0 | 0.00 | 0.00 | 0.00 | 49 | 1015.3 |
| 20260901172948 | 65 | 30 | 1.0 | 1.0 | 0.00 | 0.00 | 0.00 | 52 | 1015.1 |
| 20260901172443 | 65 | 47 | 0.0 | 1.0 | 0.00 | 0.00 | 0.00 | 52 | 1015.4 |
| 20260901171941 | 66 | 49 | 1.0 | 1.0 | 0.00 | 0.00 | 0.00 | 53 | 1015.1 |
| 20260901171439 | 67 | 39 | 0.0 | 0.0 | 0.00 | 0.00 | 0.00 | 49 | 1015.6 |
| 20260901170938 | 65 | 56 | 0.0 | 1.0 | 0.00 | 0.00 | 0.00 | 55 | 1015.4 |
| 20260901170428 | 65 | 72 | 3.0 | 3.0 | 0.00 | 0.00 | 0.00 | 51 | 1015.5 |
| 20260901165927 | 65 | 41 | 0.0 | 0.0 | 0.00 | 0.00 | 0.00 | 52 | 1015.4 |
| 20260901165422 | 67 | 62 | 0.0 | 0.0 | 0.00 | 0.00 | 0.00 | 50 | 1015.6 |
| 20260901164918 | 64 | 122 | 1.0 | 2.0 | 0.00 | 0.00 | 0.00 | 50 | 1015.7 |
| 20260901164418 | 63 | 30 | 1.0 | 2.0 | 0.00 | 0.00 | 0.00 | 51 | 1015.7 |
| 20260901163919 | 62 | 24 | 1.0 | 2.0 | 0.00 | 0.00 | 0.00 | 53 | 1015.7 |
| 20260901163414 | 62 | 58 | 0.0 | 0.0 | 0.00 | 0.00 | 0.00 | 56 | 1015.7 |
| 20260901162909 | 60 | 44 | 0.0 | 0.0 | 0.00 | 0.00 | 0.00 | 59 | 1015.9 |
| 20260901162408 | 59 | 34 | 1.0 | 2.0 | 0.00 | 0.00 | 0.00 | 63 | 1015.7 |
| 20260901161902 | 58 | 23 | 2.0 | 2.0 | 0.00 | 0.00 | 0.00 | 63 | 1015.9 |
| 20260901161401 | 58 | 29 | 0.0 | 0.0 | 0.00 | 0.00 | 0.00 | 65 | 1015.8 |